Miscellaneous Local Product
Issued by NWS Hastings, NE

Home | Current Version | Previous Version | Text Only | Print | Product List | Glossary On
Versions: 1 2 3 4 5 6 7 8 9 10 11 12 13 14 15 16 17 18 19 20 21 22 23 24 25 26 27 28 29 30 31 32 33 34 35 36 37 38 39 40 41 42 43 44 45 46 47 48 49 50
249
AXUS43 KGID 241402
MISGRI

GID CWA HOURLY WEATHER ROUNDUP
NATIONAL WEATHER SERVICE HASTINGS NE
900 AM CDT SAT JUN 24 2017

NOTE: "FAIR" INDICATES FEW OR NO CLOUDS BELOW 12,000 FEET WITH NO
SIGNIFICANT WEATHER AND/OR OBSTRUCTIONS TO VISIBILITY.

...SOUTH CENTRAL NEBRASKA...

CITY           SKY/WX    TMP DP  RH WIND       PRES   REMARKS
GRAND ISLAND   MOSUNNY   63  45  51 W7        30.24R
HASTINGS       SUNNY     63  45  51 W3        30.26R
KEARNEY        MOSUNNY   63  39  42 W3        30.26R
ORD            SUNNY     60  44  55 N3        30.24R
YORK           SUNNY     61  45  55 NW7       30.23R
AURORA         SUNNY     66  45  47 NW3       30.24R
LEXINGTON      CLOUDY    60  48  66 W3        30.27S
HOLDREGE       CLOUDY    61  44  53 CALM      30.27R
HEBRON         SUNNY     65  47  51 CALM      30.24R

...NEBRASKA PANHANDLE...

CITY           SKY/WX    TMP DP  RH WIND       PRES   REMARKS
CHADRON        SUNNY     60  39  45 CALM      30.29R
ALLIANCE       MOSUNNY   57  41  55 W3        30.29R
SCOTTSBLUFF    CLOUDY    60  39  45 MISG      30.31R
SIDNEY         CLOUDY    58  37  45 S8        30.32F

...WESTERN AND NORTH CENTRAL NEBRASKA...

CITY           SKY/WX    TMP DP  RH WIND       PRES   REMARKS
VALENTINE      MOSUNNY   62  31  31 W9        30.24S
AINSWORTH      SUNNY     62  38  41 W14       30.24S
ONEILL         SUNNY     62  42  47 W12G17    30.21R
BROKEN BOW     CLOUDY    61  42  49 CALM      30.25R
IMPERIAL       CLOUDY    58  45  62 N6        30.31R
NORTH PLATTE   CLOUDY    58  46  64 W5        30.29R
MCCOOK         CLOUDY    56  47  71 W3        30.29R

...EASTERN NEBRASKA...

CITY           SKY/WX    TMP DP  RH WIND       PRES   REMARKS
NORFOLK        SUNNY     64  42  44 W7        30.18R
SO SIOUX CITY  SUNNY     62  46  55 NW3       30.16S
TEKAMAH        SUNNY     64  43  46 NW3       30.17R
COLUMBUS       SUNNY     62  44  51 W7        30.21S
ALBION         SUNNY     63  40  43 W6        30.22R
OMAHA EPPLEY   SUNNY     66  45  46 NW5       30.18R
OFFUTT AFB     SUNNY     63  46  55 NW5       30.18R
MILLARD        SUNNY     66  47  51 NW3       30.18S
LINCOLN        SUNNY     65  48  54 CALM      30.21R
NEBRASKA CITY  SUNNY     65  47  53 CALM      30.20R
BEATRICE       SUNNY     62  50  63 SW6       30.23R
FALLS CITY     SUNNY     65  51  60 NW3       30.19R

...NORTHERN KANSAS...

CITY           SKY/WX    TMP DP  RH WIND       PRES   REMARKS
GOODLAND       CLOUDY    62  51  67 SE12      30.29R
HILL CITY      MOSUNNY   62  49  62 CALM      30.29R
NORTON         SUNNY     64  37  36 E5        30.27R
PHILLIPSBURG   SUNNY     66  43  42 E6        30.26S
SMITH CENTER   SUNNY     66  45  45 E3        30.26R
HAYS           SUNNY     65  52  62 E10       30.27R
RUSSELL        SUNNY     66  50  56 E6        30.25R
CONCORDIA      SUNNY     66  44  45 CALM      30.25R
SALINA         SUNNY     70  48  45 VRB5      30.25R
TOPEKA         SUNNY     67  51  56 CALM      30.23R



USA.gov is the U.S. government's official web portal to all federal, state and local government web resources and services.